When you browse on this site, cookies collect data to enhance your experience and personalize the content and advertising you see.
Visit our Privacy Policy to learn more. By continuing to use the site, you agree to this use of cookies and data.
  • Em Portugal
  • Lista de países
  • Para 7 dias
  • Temperatura da água
  • Mapa do tempo
  • Widgets de tempo
  • user-avatar
    Iniciar Sessão

    Previsão horária em Mingachevir

    Hoje, 23 Agosto, Sexta-feira

    Tempo Temperatura Precipitação Vento Pressão Humidade
    00:00 +27°C° 0 mm 3 m/s 750 mmHg 39%
    01:00 +26°C° 0 mm 3 m/s 750 mmHg 41%
    02:00 +26°C° 0 mm 2 m/s 750 mmHg 42%
    03:00 +25°C° 0 mm 2 m/s 750 mmHg 45%
    04:00 +26°C° 0 mm 2 m/s 751 mmHg 46%
    05:00 +26°C° 0 mm 2 m/s 751 mmHg 46%
    06:00 +26°C° 0 mm 2 m/s 751 mmHg 47%
    07:00 +29°C° 0 mm 3 m/s 751 mmHg 41%
    08:00 +31°C° 0 mm 3 m/s 751 mmHg 35%
    09:00 +35°C° 0 mm 4 m/s 751 mmHg 28%
    10:00 +37°C° 0 mm 5 m/s 751 mmHg 26%
    11:00 +39°C° 0 mm 6 m/s 750 mmHg 24%
    12:00 +41°C° 0 mm 7 m/s 750 mmHg 22%
    13:00 +41°C° 0 mm 7 m/s 749 mmHg 21%
    14:00 +43°C° 0 mm 7 m/s 749 mmHg 20%
    15:00 +44°C° 0 mm 7 m/s 749 mmHg 18%
    16:00 +43°C° 0 mm 7 m/s 749 mmHg 18%
    17:00 +41°C° 0 mm 7 m/s 749 mmHg 17%
    18:00 +40°C° 0 mm 8 m/s 749 mmHg 17%
    19:00 +38°C° 0 mm 7 m/s 749 mmHg 21%
    20:00 +34°C° 0 mm 5 m/s 750 mmHg 26%
    21:00 +30°C° 0 mm 4 m/s 750 mmHg 30%
    22:00 +29°C° 0 mm 4 m/s 750 mmHg 34%
    23:00 +28°C° 0 mm 3 m/s 750 mmHg 38%

    Amanhã, 24 Agosto, Sábado

    Tempo Temperatura Precipitação Vento Pressão Humidade
    00:00 +27°C° 0 mm 3 m/s 750 mmHg 43%
    01:00 +27°C° 0 mm 2 m/s 750 mmHg 47%
    02:00 +26°C° 0 mm 2 m/s 750 mmHg 52%
    03:00 +26°C° 0 mm 2 m/s 750 mmHg 56%
    04:00 +26°C° 0 mm 2 m/s 750 mmHg 56%
    05:00 +26°C° 0 mm 1 m/s 750 mmHg 57%
    06:00 +26°C° 0 mm 1 m/s 750 mmHg 57%
    07:00 +29°C° 0 mm 2 m/s 751 mmHg 50%
    08:00 +31°C° 0 mm 2 m/s 751 mmHg 43%
    09:00 +35°C° 0 mm 2 m/s 751 mmHg 36%
    10:00 +37°C° 0 mm 3 m/s 750 mmHg 31%
    11:00 +38°C° 0 mm 4 m/s 750 mmHg 26%
    12:00 +41°C° 0 mm 5 m/s 750 mmHg 21%
    13:00 +42°C° 0 mm 5 m/s 749 mmHg 19%
    14:00 +44°C° 0 mm 6 m/s 749 mmHg 18%
    15:00 +45°C° 0 mm 6 m/s 748 mmHg 17%
    16:00 +44°C° 0 mm 7 m/s 748 mmHg 16%
    17:00 +43°C° 0 mm 7 m/s 749 mmHg 16%
    18:00 +41°C° 0 mm 7 m/s 749 mmHg 15%
    19:00 +38°C° 0 mm 7 m/s 749 mmHg 22%
    20:00 +34°C° 0 mm 6 m/s 750 mmHg 29%
    21:00 +30°C° 0 mm 5 m/s 751 mmHg 36%
    22:00 +30°C° 0 mm 4 m/s 751 mmHg 39%
    23:00 +29°C° 0 mm 2 m/s 751 mmHg 43%

    Depois de amanhã, 25 Agosto, Domingo

    Tempo Temperatura Precipitação Vento Pressão Humidade
    00:00 +28°C° 0 mm 1 m/s 751 mmHg 46%
    01:00 +27°C° 0 mm 1 m/s 751 mmHg 48%
    02:00 +26°C° 0 mm 1 m/s 751 mmHg 49%
    03:00 +26°C° 0 mm 1 m/s 750 mmHg 51%
    04:00 +26°C° 0 mm 1 m/s 750 mmHg 51%
    05:00 +26°C° 0 mm 1 m/s 750 mmHg 51%
    06:00 +27°C° 0 mm 1 m/s 750 mmHg 51%
    07:00 +29°C° 0 mm 2 m/s 750 mmHg 44%
    08:00 +32°C° 0 mm 2 m/s 750 mmHg 37%
    09:00 +35°C° 0 mm 3 m/s 750 mmHg 30%
    10:00 +37°C° 0 mm 3 m/s 750 mmHg 26%
    11:00 +38°C° 0 mm 3 m/s 750 mmHg 22%
    12:00 +40°C° 0 mm 3 m/s 749 mmHg 18%
    13:00 +40°C° 0 mm 3 m/s 749 mmHg 17%
    14:00 +42°C° 0 mm 4 m/s 749 mmHg 15%
    15:00 +43°C° 0 mm 4 m/s 749 mmHg 14%
    16:00 +42°C° 0 mm 4 m/s 749 mmHg 16%
    17:00 +40°C° 0 mm 5 m/s 749 mmHg 19%
    18:00 +39°C° 0 mm 5 m/s 749 mmHg 21%
    19:00 +35°C° 0 mm 4 m/s 749 mmHg 24%
    20:00 +33°C° 0 mm 4 m/s 750 mmHg 27%
    21:00 +29°C° 0 mm 4 m/s 750 mmHg 31%
    22:00 +28°C° 0 mm 3 m/s 751 mmHg 34%
    23:00 +27°C° 0 mm 3 m/s 751 mmHg 37%

    26 Agosto, Segunda-feira

    Tempo Temperatura Precipitação Vento Pressão Humidade
    00:00 +26°C° 0 mm 3 m/s 751 mmHg 40%
    01:00 +25°C° 0 mm 2 m/s 751 mmHg 42%
    02:00 +25°C° 0 mm 2 m/s 751 mmHg 45%
    03:00 +24°C° 0 mm 2 m/s 751 mmHg 47%
    04:00 +24°C° 0 mm 1 m/s 751 mmHg 48%
    05:00 +24°C° 0 mm 1 m/s 752 mmHg 50%
    06:00 +24°C° 0 mm 1 m/s 752 mmHg 51%
    07:00 +27°C° 0.1 mm 1 m/s 752 mmHg 43%
    08:00 +29°C° 0.1 mm 1 m/s 752 mmHg 34%
    09:00 +32°C° 0.1 mm 2 m/s 752 mmHg 26%
    10:00 +35°C° 0 mm 3 m/s 752 mmHg 23%
    11:00 +36°C° 0 mm 4 m/s 752 mmHg 19%
    12:00 +38°C° 0 mm 4 m/s 752 mmHg 16%
    13:00 +39°C° 0.1 mm 5 m/s 751 mmHg 17%
    14:00 +39°C° 0.1 mm 5 m/s 751 mmHg 17%
    15:00 +40°C° 0.1 mm 6 m/s 751 mmHg 18%
    16:00 +38°C° 0.1 mm 6 m/s 751 mmHg 21%
    17:00 +36°C° 0.1 mm 6 m/s 751 mmHg 25%
    18:00 +35°C° 0.1 mm 6 m/s 752 mmHg 28%
    19:00 +33°C° 0 mm 6 m/s 753 mmHg 35%
    20:00 +30°C° 0 mm 7 m/s 753 mmHg 42%
    21:00 +28°C° 0 mm 8 m/s 754 mmHg 49%
    22:00 +28°C° 0 mm 8 m/s 754 mmHg 50%
    23:00 +27°C° 0 mm 7 m/s 754 mmHg 52%

    27 Agosto, Terça-feira

    Tempo Temperatura Precipitação Vento Pressão Humidade
    00:00 +27°C° 0 mm 6 m/s 754 mmHg 53%
    01:00 +26°C° 0.1 mm 6 m/s 754 mmHg 56%
    02:00 +26°C° 0.1 mm 5 m/s 754 mmHg 60%
    03:00 +25°C° 0.1 mm 4 m/s 754 mmHg 63%
    04:00 +25°C° 0.2 mm 4 m/s 754 mmHg 67%
    05:00 +23°C° 0.2 mm 4 m/s 754 mmHg 71%
    06:00 +23°C° 0.2 mm 4 m/s 754 mmHg 74%
    07:00 +26°C° 0 mm 5 m/s 754 mmHg 65%
    08:00 +28°C° 0 mm 6 m/s 754 mmHg 55%
    09:00 +30°C° 0 mm 7 m/s 753 mmHg 45%
    10:00 +32°C° 0.1 mm 7 m/s 753 mmHg 40%
    11:00 +33°C° 0.1 mm 6 m/s 752 mmHg 36%
    12:00 +35°C° 0.1 mm 6 m/s 752 mmHg 32%
    13:00 +35°C° 0.3 mm 5 m/s 751 mmHg 31%
    14:00 +35°C° 0.3 mm 5 m/s 750 mmHg 30%
    15:00 +36°C° 0.3 mm 4 m/s 750 mmHg 30%
    16:00 +35°C° 0.2 mm 4 m/s 750 mmHg 33%
    17:00 +34°C° 0.2 mm 4 m/s 750 mmHg 36%
    18:00 +33°C° 0.2 mm 3 m/s 750 mmHg 39%
    19:00 +30°C° 0.1 mm 3 m/s 750 mmHg 45%
    20:00 +28°C° 0.1 mm 3 m/s 750 mmHg 51%
    21:00 +26°C° 0.1 mm 3 m/s 751 mmHg 57%
    22:00 +26°C° 0.1 mm 3 m/s 750 mmHg 62%
    23:00 +25°C° 0.1 mm 2 m/s 750 mmHg 67%

    28 Agosto, Quarta-feira

    Tempo Temperatura Precipitação Vento Pressão Humidade
    00:00 +24°C° 0.1 mm 2 m/s 750 mmHg 72%
    01:00 +23°C° 0.2 mm 1 m/s 750 mmHg 75%
    02:00 +23°C° 0.2 mm 1 m/s 750 mmHg 78%
    03:00 +20°C° 0.2 mm 0 m/s 749 mmHg 80%
    04:00 +21°C° 0.1 mm 0 m/s 750 mmHg 79%
    05:00 +21°C° 0.1 mm 0 m/s 750 mmHg 78%
    06:00 +21°C° 0.1 mm 0 m/s 750 mmHg 76%
    07:00 +25°C° 0 mm 1 m/s 750 mmHg 69%
    08:00 +27°C° 0 mm 1 m/s 750 mmHg 61%
    09:00 +29°C° 0 mm 1 m/s 750 mmHg 53%
    10:00 +30°C° 0 mm 1 m/s 750 mmHg 48%
    11:00 +32°C° 0 mm 1 m/s 749 mmHg 42%
    12:00 +33°C° 0 mm 1 m/s 749 mmHg 37%
    13:00 +35°C° 0 mm 2 m/s 749 mmHg 35%
    14:00 +36°C° 0 mm 2 m/s 748 mmHg 33%
    15:00 +36°C° 0 mm 2 m/s 748 mmHg 31%
    16:00 +35°C° 0.1 mm 3 m/s 748 mmHg 34%
    17:00 +34°C° 0.1 mm 3 m/s 749 mmHg 37%
    18:00 +33°C° 0.1 mm 4 m/s 749 mmHg 40%
    19:00 +30°C° 0 mm 5 m/s 750 mmHg 45%
    20:00 +29°C° 0 mm 6 m/s 750 mmHg 51%
    21:00 +27°C° 0 mm 7 m/s 751 mmHg 56%
    22:00 +26°C° 0 mm 6 m/s 751 mmHg 59%
    23:00 +25°C° 0 mm 5 m/s 751 mmHg 61%
    Mostrar mais